Mitchell, SD

4:40 PM CST on November 22, 2019 (GMT -0600)
Mitchell Municipal

Weather History for KMHE - September, 2019

Change the Weather History Date:

Wednesday, September 11, 2019

  Actual Average Record
Temperature  
Mean Temperature 68 °F 65 °F  
Max Temperature 74 °F 78 °F 101 °F (1931)
Min Temperature 61 °F 52 °F 31 °F (1955)
Degree Days  
Heating Degree Days 0 3  
Month to date heating degree days 2 25  
Since 1 July heating degree days 11 42  
Cooling Degree Days 3 3  
Month to date cooling degree days 55 45  
Year to date cooling degree days 849 790  
Growing Degree Days 17 (Base 50)    
Moisture  
Dew Point 61 °F    
Average Humidity 79    
Maximum Humidity 90    
Minimum Humidity 68    
Precipitation  
Precipitation 0.10 in 0.08 in 1.90 in (1901)
Month to date precipitation 3.04 0.88  
Year to date precipitation 28.08 17.23  
Snow  
Snow 0.00 in - 0.00 in ()
Month to date snowfall 0.0  
Since 1 July snowfall 0.0  
Since 1 September snowfall 0.0  
Snow Depth 0.00 in    
Sea Level Pressure  
Sea Level Pressure 29.95 in    
Wind  
Wind Speed 11 mph (East)    
Max Wind Speed 22 mph    
Max Gust Speed 29 mph    
Visibility 8 miles    
Events Rain , Thunderstorm    
T = Trace of Precipitation, MM = Missing Value Source: NWS Daily Summary

Daily Weather History Graph

Daily Weather History Graph

Search for Another Location

Airport or City:

Astronomy

Sep. 11, 2019 Rise Set
Actual Time 7:06 AM CDT 7:50 PM CDT
Civil Twilight 6:37 AM CDT 8:19 PM CDT
Nautical Twilight 6:03 AM CDT 8:53 PM CDT
Astronomical Twilight 5:27 AM CDT 9:29 PM CDT
Moon 7:09 PM CDT (9/11) 4:23 AM CDT (9/11)
Length of Visible Light 13h 41m
Length of Day
12h 43m
Waxing Gibbous, 95% of the Moon is Illuminated
Sep 11
Waxing Gibbous
Sep 13
Full
Sep 21
Last Quarter
Sep 28
New
Oct 5
First Quarter

Hourly Weather History & Observations

Time (CDT) Temp. Dew Point Humidity Pressure Visibility Wind Dir Wind Speed Gust Speed Precip Events Conditions
12:12 AM 63.0 °F 60.1 °F 90% 30.01 in 9.0 mi NE 16.1 mph 27.6 mph 0.03 in Rain , Thunderstorm Rain
12:40 AM 63.0 °F 60.1 °F 90% 30.00 in 2.5 mi East 11.5 mph - 0.13 in Rain , Thunderstorm Thunderstorms and Rain
12:48 AM 62.6 °F 59.0 °F 88% 29.98 in 7.0 mi ENE 12.7 mph - 0.16 in Rain , Thunderstorm Thunderstorms and Rain
12:53 AM 62.1 °F 59.0 °F 90% 29.96 in 8.0 mi East 11.5 mph - 0.17 in Rain , Thunderstorm Rain
1:15 AM 62.1 °F 59.0 °F 90% 29.94 in 10.0 mi East 12.7 mph 27.6 mph 0.03 in Rain , Thunderstorm Light Thunderstorms and Rain
1:36 AM 63.0 °F 59.0 °F 87% 29.93 in 10.0 mi East 15.0 mph 26.5 mph 0.05 in Rain Light Rain
1:53 AM 62.1 °F 57.9 °F 86% 29.88 in 10.0 mi East 19.6 mph 27.6 mph 0.06 in Rain Light Rain
2:53 AM 62.1 °F 57.0 °F 84% 29.88 in 10.0 mi East 9.2 mph 21.9 mph 0.00 in   Clear
3:53 AM 63.0 °F 57.9 °F 84% 29.96 in 10.0 mi ESE 5.8 mph - 0.00 in Rain Light Rain
4:53 AM 63.0 °F 59.0 °F 87% 29.98 in 10.0 mi South 4.6 mph - 0.04 in Rain Light Rain
5:53 AM 62.1 °F 59.0 °F 90% 29.95 in 10.0 mi East 5.8 mph - 0.00 in   Partly Cloudy
6:11 AM 61.0 °F 59.0 °F 93% 29.99 in 10.0 mi North 5.8 mph - N/A   Scattered Clouds
6:17 AM 62.1 °F 59.0 °F 90% 30.00 in 10.0 mi North 4.6 mph - N/A   Mostly Cloudy
6:26 AM 62.1 °F 59.0 °F 90% 30.01 in 10.0 mi North 5.8 mph - N/A   Mostly Cloudy
6:53 AM 62.1 °F 59.0 °F 90% 30.02 in 10.0 mi NNW 6.9 mph - N/A   Overcast
7:24 AM 62.1 °F 57.9 °F 86% 30.00 in 10.0 mi NE 9.2 mph - N/A   Mostly Cloudy
7:53 AM 61.0 °F 57.9 °F 90% 29.92 in 10.0 mi East 15.0 mph - 0.01 in Rain Light Rain
8:22 AM 62.1 °F 57.9 °F 86% 29.99 in 10.0 mi NE 8.1 mph - 0.00 in   Mostly Cloudy
8:53 AM 63.0 °F 59.0 °F 87% 29.99 in 10.0 mi NE 9.2 mph - 0.00 in   Mostly Cloudy
9:19 AM 64.0 °F 59.0 °F 84% 29.97 in 10.0 mi ESE 19.6 mph 25.3 mph N/A   Mostly Cloudy
9:53 AM 63.0 °F 59.0 °F 87% 30.03 in 10.0 mi East 8.1 mph - N/A   Overcast
10:53 AM 64.9 °F 60.1 °F 84% 30.02 in 10.0 mi ESE 12.7 mph 19.6 mph N/A   Overcast
11:53 AM 66.0 °F 60.1 °F 81% 30.02 in 10.0 mi East 11.5 mph - N/A   Overcast
12:53 PM 68.0 °F 61.0 °F 78% 30.01 in 10.0 mi ENE 10.4 mph - N/A   Overcast
1:53 PM 71.1 °F 62.1 °F 73% 30.00 in 10.0 mi ENE 10.4 mph - N/A   Overcast
2:13 PM 71.1 °F 62.1 °F 73% 30.00 in 10.0 mi ENE 11.5 mph - N/A   Mostly Cloudy
2:32 PM 71.1 °F 62.1 °F 73% 29.99 in 10.0 mi NE 12.7 mph - N/A   Mostly Cloudy
2:53 PM 73.0 °F 63.0 °F 71% 29.98 in 10.0 mi NE 12.7 mph - N/A   Mostly Cloudy
3:53 PM 73.0 °F 63.0 °F 71% 29.96 in 10.0 mi East 12.7 mph - N/A   Partly Cloudy
4:25 PM 72.0 °F 62.1 °F 71% 29.96 in 10.0 mi ENE 13.8 mph - N/A   Mostly Cloudy
4:41 PM 73.0 °F 63.0 °F 71% 29.97 in 10.0 mi East 9.2 mph - N/A   Mostly Cloudy
4:51 PM 73.4 °F 62.6 °F 69% 29.97 in 10.0 mi East 13.8 mph - N/A   Mostly Cloudy
4:53 PM 73.9 °F 63.0 °F 68% 29.96 in 10.0 mi East 12.7 mph - N/A   Mostly Cloudy
5:19 PM 72.0 °F 63.0 °F 73% 29.97 in 10.0 mi East 12.7 mph - N/A   Mostly Cloudy
5:53 PM 69.1 °F 63.0 °F 81% 29.96 in 10.0 mi ENE 13.8 mph - N/A   Overcast
6:53 PM 66.9 °F 61.0 °F 81% 29.93 in 10.0 mi East 18.4 mph - N/A   Overcast
7:34 PM 66.9 °F 62.1 °F 84% 29.94 in 10.0 mi ENE 16.1 mph 23.0 mph N/A   Overcast
7:53 PM 66.9 °F 61.0 °F 81% 29.93 in 10.0 mi East 17.3 mph 27.6 mph N/A   Overcast
8:14 PM 66.0 °F 61.0 °F 84% 29.91 in 10.0 mi East 16.1 mph 32.2 mph N/A   Overcast
8:44 PM 64.9 °F 61.0 °F 87% 29.90 in 10.0 mi East 16.1 mph 28.8 mph 0.03 in Rain , Thunderstorm Light Thunderstorms and Rain
8:53 PM 64.9 °F 61.0 °F 87% 29.91 in 10.0 mi East 17.3 mph 25.3 mph 0.03 in Rain , Thunderstorm Light Thunderstorms and Rain
9:02 PM 64.0 °F 61.0 °F 90% 29.90 in 2.0 mi ENE 15.0 mph - 0.19 in Rain , Thunderstorm Heavy Thunderstorms and Rain
9:21 PM 64.0 °F 62.1 °F 93% 29.90 in 0.8 mi East 19.6 mph 27.6 mph 0.80 in Rain , Thunderstorm Heavy Thunderstorms and Rain
9:33 PM 64.0 °F 62.1 °F 93% 29.92 in 0.8 mi East 9.2 mph 27.6 mph 1.28 in Rain , Thunderstorm Heavy Thunderstorms and Rain
9:53 PM 64.0 °F 62.1 °F 93% 29.95 in 1.0 mi ESE 16.1 mph - 2.08 in Rain , Thunderstorm Heavy Thunderstorms and Rain
10:18 PM 64.9 °F 63.0 °F 93% 29.93 in 3.0 mi ESE 20.7 mph 28.8 mph 0.46 in Rain , Thunderstorm Heavy Thunderstorms and Rain
10:26 PM 64.0 °F 63.0 °F 96% 29.90 in 1.8 mi East 18.4 mph 28.8 mph 0.62 in Rain , Thunderstorm Heavy Thunderstorms and Rain
10:36 PM 64.9 °F 63.0 °F 93% 29.91 in 2.0 mi ESE 21.9 mph 31.1 mph 0.77 in Rain , Thunderstorm Heavy Thunderstorms and Rain
10:53 PM 66.0 °F 64.0 °F 93% 29.88 in 10.0 mi East 18.4 mph 25.3 mph 0.82 in Rain Light Rain
11:33 PM 64.9 °F 62.1 °F 90% 29.88 in 10.0 mi East 21.9 mph 29.9 mph 0.06 in Rain , Thunderstorm Light Rain
11:43 PM 64.9 °F 62.1 °F 90% 29.86 in 10.0 mi East 21.9 mph 35.7 mph 0.07 in Rain , Thunderstorm Light Thunderstorms and Rain
11:53 PM 64.9 °F 62.1 °F 90% 29.88 in 3.0 mi ESE 25.3 mph 35.7 mph 0.14 in Rain , Thunderstorm Heavy Thunderstorms and Rain